Tracking 20942 objects as of 13-Jul-2020
HD Live streaming from Space Station
objects crossing your sky now

CP5

Track CP5 now!
10-day predictions
CP5 is classified as:


NORAD ID: 38763
Int'l Code: 2012-048F
Perigee: 497.7 km
Apogee: 684.8 km
Inclination: 64.7 °
Period: 96.4 minutes
Semi major axis: 6962 km
RCS: Unknown
Launch date: September 13, 2012
Source: United States (US)
Launch site: AIR FORCE WESTERN TEST RANGE (AFWTR)

Uplink (MHz):
Downlink (MHz): 437.405
Beacon (MHz): 437.405
Mode: 1200bps AFSK CW
Call sign: CP5
Status: Inactive

aabbcc
Your satellite tracking list
Your tracking list is empty




NASA's NSSDC Master Catalog

Two Line Element Set (TLE):
1 38763U 12048F   20192.39263709 +.00000107 +00000+0 +23357-4 0  1033
2 38763  64.6642 144.3352 0134417 127.3926 233.9515 14.94437470166812
Source of the keplerian elements: Caltech